Terminal Aerodrome Forecast
Issued by NWS

Home | Current Version | Previous Version | Text Only | Print | Product List | Glossary On
Versions: 1 2 3 4 5 6 7 8 9 10 11 12 13 14 15 16 17 18 19 20 21 22 23 24 25 26 27 28 29
000
FTUS42 KCAE 230800 AAB
TAFOGB
TAF AMD
KOGB 230854Z 2309/2406 28005KT 3SM BR SKC
      TEMPO 2310/2312 VRB03KT 1 1/2SM BR
     FM231300 36010KT P6SM SKC=

USA.gov is the U.S. government's official web portal to all federal, state and local government web resources and services.